Location: Allison's Woods
(35.8809°N, 80.8140°W)
Time: 22:12:14
(UTC-04:00)

Iridium 39 - Visible Passes

Search period start: 23 March 2017 00:00
Search period end: 02 April 2017 00:00
Orbit: 726 x 750 km, 86.4° (Epoch: 22 March)

Date Brightness Start Highest point End Pass type
(mag) Time Alt. Az. Time Alt. Az. Time Alt. Az.
23 Mar 8.9 03:28:35 10° NE 03:28:54 11° NE 03:28:54 11° NE visible
23 Mar 7.4 05:06:14 10° N 05:08:31 26° NNW 05:08:31 26° NNW visible
24 Mar 7.8 04:21:06 10° N 04:23:12 24° NNE 04:23:12 24° NNE visible
25 Mar 8.7 03:36:52 10° NNE 03:37:55 14° NE 03:37:55 14° NE visible
25 Mar 7.8 05:16:08 10° NNW 05:17:32 18° NNW 05:17:32 18° NNW visible
26 Mar 7.9 04:30:36 10° N 04:32:17 21° N 04:32:17 21° N visible
27 Mar 8.5 03:45:51 10° NNE 03:47:03 16° NNE 03:47:03 16° NNE visible
27 Mar 8.2 05:26:21 10° NW 05:26:40 11° NW 05:26:40 11° NW visible
28 Mar 8.0 04:40:17 10° NNW 04:41:28 17° NNW 04:41:28 17° NNW visible
29 Mar 8.3 03:55:08 10° N 03:56:16 17° N 03:56:16 17° N visible
30 Mar 8.9 03:10:50 10° NNE 03:11:05 11° NNE 03:11:05 11° NNE visible
30 Mar 8.2 04:50:13 10° NNW 04:50:44 13° NNW 04:50:44 13° NNW visible
31 Mar 8.3 04:04:38 10° N 04:05:34 16° N 04:05:34 16° N visible
01 Apr 8.7 03:19:50 10° NNE 03:20:25 13° NNE 03:20:25 13° NNE visible
